Location: *
(2.5500°S, 65.9667°W)
Time: 06:02:34
(UTC+00:00)

Tiros 1 despin weight - Pass Details

Date: 17 April 2024
Orbit: 578 x 621 km, 48.2° (Epoch: 25 May)

Event Time Altitude Azimuth Distance (km) Brightness Sun altitude
Rises 15:36:01 0° 240° (WSW) 2,789 ? 72.2°
Reaches altitude 10° 15:38:34 10° 253° (WSW) 1,892 ? 72.6°
Maximum altitude 15:42:10 25° 309° (NW) 1,175 ? 73.2°
Drops below altitude 10° 15:45:47 10° 6° (N) 1,903 ? 73.7°
Sets 15:48:22 0° 19° (NNE) 2,808 ? 74.1°
